EW2575 Weather Reports


Display with metric or nautical units.
time (UTC)temp
F
wind
direction
speed
MPH
gust
MPH
rain 1hr
in
rain 24hr
in
rain mn
in
humidity
%
barometer
mb
20260504050502 58 98 3.0 7.0 0.00 0.00 0.00 80 1016.6
20260504050001 58 102 4.0 7.0 0.00 0.00 0.00 81 1016.5
20260504045501 58 92 3.0 7.0 0.00 0.00 0.00 81 1016.4
20260504045001 58 109 4.0 7.0 0.00 0.00 0.00 81 1016.3
20260504044601 58 118 5.0 7.0 0.00 0.00 0.00 81 1016.4
20260504044100 58 117 4.0 7.0 0.00 0.00 0.00 81 1016.3
20260504043600 58 117 5.0 7.0 0.00 0.00 0.00 80 1016.3
20260504043115 58 108 2.0 6.0 0.00 0.00 0.00 81 1016.4
20260504042600 58 108 2.0 6.0 0.00 0.00 0.00 82 1016.5
20260504042059 58 114 4.0 7.0 0.00 0.00 0.00 83 1016.3
20260504041559 58 111 4.0 7.0 0.00 0.00 0.00 84 1016.3
20260504041059 58 97 3.0 6.0 0.00 0.00 0.00 84 1016.4
20260504040559 58 108 3.0 6.0 0.00 0.00 0.00 82 1016.4
20260504035601 59 41 1.0 3.0 0.00 0.00 0.00 79 1016.4
20260504035058 60 328 1.0 2.0 0.00 0.00 0.00 78 1016.4
20260504034557 60 328 0.0 9.0 0.00 0.00 0.00 78 1016.3
20260504034057 60 328 3.0 10.0 0.00 0.00 0.00 77 1016.3
20260504033558 60 117 7.0 10.0 0.00 0.00 0.00 78 1016.1
20260504033115 60 121 8.0 13.0 0.00 0.00 0.00 80 1016.1
20260504032559 59 115 10.0 15.0 0.00 0.00 0.00 83 1016.1
20260504032057 59 121 11.0 17.0 0.00 0.00 0.00 86 1016.1
20260504031603 58 126 11.0 16.0 0.00 0.00 0.00 88 1016.1
20260504031058 58 121 11.0 17.0 0.00 0.00 0.00 89 1016.2
20260504030554 58 125 12.0 15.0 0.00 0.00 0.00 90 1016.3
20260504030053 58 114 8.0 13.0 0.00 0.00 0.00 91 1016.3
20260504025552 59 150 4.0 8.0 0.00 0.00 0.00 91 1016.5
20260504025052 59 107 6.0 8.0 0.00 0.00 0.00 91 1016.8
20260504024559 59 92 3.0 5.0 0.00 0.00 0.00 90 1017.0
20260504024052 59 316 0.0 3.0 0.00 0.00 0.00 89 1017.2
20260504023556 59 316 0.0 3.0 0.00 0.00 0.00 88 1017.0
20260504023052 59 224 0.0 4.0 0.00 0.00 0.00 87 1017.1
20260504022551 59 205 2.0 5.0 0.00 0.00 0.00 86 1016.8
20260504022051 60 190 2.0 10.0 0.00 0.00 0.00 84 1016.7
20260504021554 60 173 5.0 10.0 0.00 0.00 0.00 80 1016.6
20260504021052 60 121 7.0 13.0 0.00 0.00 0.00 74 1016.4
20260504020548 60 110 9.0 13.0 0.00 0.00 0.00 75 1016.3
20260504020050 59 107 9.0 13.0 0.00 0.00 0.00 76 1016.3
20260504015547 59 95 9.0 14.0 0.00 0.00 0.00 77 1016.3
20260504015047 59 110 10.0 14.0 0.00 0.00 0.00 78 1016.4
20260504014546 59 126 9.0 12.0 0.00 0.00 0.00 79 1016.6
20260504014043 58 110 8.0 11.0 0.00 0.00 0.00 83 1016.8
20260504013542 58 94 5.0 7.0 0.00 0.00 0.00 83 1017.1
20260504013048 58 107 2.0 4.0 0.00 0.00 0.00 84 1017.4
20260504012544 59 122 3.0 4.0 0.00 0.00 0.00 85 1017.6
20260504012044 58 144 3.0 5.0 0.00 0.00 0.00 80 1017.7
20260504011542 59 173 2.0 4.0 0.00 0.00 0.00 79 1017.7
20260504011041 59 91 2.0 4.0 0.00 0.00 0.00 79 1017.6
20260504010540 59 113 2.0 8.0 0.00 0.00 0.00 80 1017.6
20260504010040 59 84 5.0 8.0 0.00 0.00 0.00 81 1017.4
20260504005540 59 103 4.0 7.0 0.00 0.00 0.00 83 1017.4
20260504005039 59 119 4.0 6.0 0.00 0.00 0.00 84 1017.3
20260504004548 59 65 3.0 4.0 0.00 0.00 0.00 81 1017.3
20260504004037 59 65 0.0 2.0 0.00 0.00 0.00 79 1017.5
20260504003539 59 65 0.0 2.0 0.00 0.00 0.00 79 1017.6
20260504003037 60 65 0.0 8.0 0.00 0.00 0.00 79 1017.6
20260504002537 60 88 2.0 9.0 0.00 0.00 0.00 79 1017.5
20260504002040 60 107 6.0 9.0 0.00 0.00 0.00 80 1017.5
20260504001537 59 138 6.0 9.0 0.00 0.00 0.00 82 1017.5
20260504001034 59 123 6.0 8.0 0.00 0.00 0.00 85 1017.6
20260504000533 59 120 5.0 7.0 0.00 0.00 0.00 88 1017.7
20260504000032 59 80 2.0 4.0 0.00 0.00 0.00 89 1017.8
20260503235531 59 80 3.0 4.0 0.00 0.00 0.00 89 1017.9
20260503235031 59 80 2.0 4.0 0.00 0.00 0.00 88 1018.0
20260503234531 59 80 2.0 4.0 0.00 0.00 0.00 88 1017.9
20260503234031 59 304 0.0 2.0 0.00 0.00 0.00 88 1018.1
20260503233529 60 304 0.0 2.0 0.00 0.00 0.00 88 1017.9
20260503233031 59 304 1.0 3.0 0.00 0.00 0.00 89 1017.8
20260503232530 59 304 1.0 3.0 0.00 0.00 0.00 89 1017.8
20260503232028 60 304 1.0 2.0 0.00 0.00 0.00 90 1017.7
20260503231528 60 304 0.0 3.0 0.00 0.00 0.00 90 1017.8
20260503231027 60 304 0.0 6.0 0.00 0.00 0.00 91 1017.8
20260503230526 59 100 3.0 7.0 0.00 0.00 0.00 92 1017.6
20260503230023 58 102 5.0 7.0 0.00 0.00 0.00 94 1017.6
20260503225522 59 108 0.0 2.0 0.00 0.00 0.00 94 1017.7
20260503225023 59 108 1.0 4.0 0.00 0.00 0.00 94 1017.7
20260503224523 59 108 1.0 4.0 0.00 0.00 0.00 94 1017.7
20260503224023 60 108 1.0 3.0 0.00 0.00 0.00 94 1017.7
20260503223524 60 108 1.0 3.0 0.00 0.00 0.00 94 1017.8
20260503223023 60 108 1.0 2.0 0.00 0.00 0.00 94 1017.8
20260503222522 60 108 0.0 1.0 0.00 0.00 0.00 94 1017.9
20260503222022 60 108 0.0 3.0 0.00 0.00 0.00 94 1017.8
20260503221522 60 108 1.0 3.0 0.00 0.00 0.00 94 1017.9
20260503221024 60 108 1.0 2.0 0.00 0.00 0.00 93 1017.8
20260503220522 61 108 0.0 2.0 0.00 0.00 0.00 93 1017.7
20260503220021 61 108 0.0 4.0 0.00 0.00 0.00 94 1017.6
20260503215521 61 108 1.0 6.0 0.00 0.00 0.00 94 1017.5
20260503215023 61 96 2.0 7.0 0.00 0.00 0.00 94 1017.4
20260503214520 61 102 4.0 7.0 0.00 0.00 0.00 94 1017.2
20260503214021 60 88 3.0 6.0 0.00 0.00 0.00 94 1017.2
20260503213520 60 284 0.0 1.0 0.00 0.00 0.00 94 1017.3
20260503213023 60 284 0.0 2.0 0.00 0.00 0.00 93 1017.3
20260503212520 60 284 0.0 3.0 0.00 0.00 0.00 93 1017.2
20260503212019 60 284 0.0 3.0 0.00 0.00 0.00 93 1017.2
20260503211529 61 284 2.0 4.0 0.00 0.00 0.00 92 1017.2
20260503211019 61 284 1.0 3.0 0.00 0.00 0.00 92 1017.0
20260503210519 62 284 1.0 5.0 0.00 0.00 0.00 91 1016.7
20260503210019 62 284 3.0 5.0 0.00 0.00 0.00 91 1016.6
20260503205526 62 284 0.0 3.0 0.00 0.00 0.00 91 1016.5
20260503205019 62 284 1.0 3.0 0.00 0.00 0.00 92 1016.3
20260503204519 62 284 0.0 2.0 0.00 0.00 0.00 92 1016.4
20260503204017 62 284 0.0 0.0 0.00 0.00 0.00 91 1016.4
20260503203517 62 284 0.0 0.0 0.00 0.00 0.00 91 1016.5
20260503203020 62 284 0.0 1.0 0.00 0.00 0.00 91 1016.5
20260503202517 62 284 0.0 1.0 0.00 0.00 0.00 91 1016.6
20260503202018 62 284 0.0 0.0 0.00 0.00 0.00 90 1016.5
20260503201517 62 284 0.0 0.0 0.00 0.00 0.00 90 1016.5
20260503201019 62 284 0.0 2.0 0.00 0.00 0.00 90 1016.4
20260503200517 63 284 0.0 3.0 0.00 0.00 0.00 89 1016.4
20260503200016 63 284 1.0 3.0 0.00 0.00 0.00 89 1016.3
20260503195517 63 284 1.0 3.0 0.00 0.00 0.00 88 1016.3
20260503195017 64 317 0.0 7.0 0.00 0.00 0.00 87 1016.3
20260503194515 63 131 4.0 7.0 0.00 0.00 0.00 87 1016.2
20260503194015 63 103 3.0 7.0 0.00 0.00 0.00 88 1016.3
20260503193516 63 98 4.0 12.0 0.00 0.00 0.00 89 1016.2
20260503193031 63 109 6.0 11.0 0.00 0.00 0.00 90 1016.2
20260503192514 63 71 7.0 10.0 0.00 0.00 0.00 91 1016.2
20260503192015 62 110 4.0 7.0 0.00 0.00 0.00 92 1016.1
20260503191515 61 116 4.0 8.0 0.00 0.00 0.00 93 1016.2
20260503191018 61 117 4.0 8.0 0.00 0.00 0.00 93 1016.3
20260503190515 61 113 3.0 6.0 0.00 0.00 0.00 93 1016.2
20260503190024 61 128 2.0 4.0 0.00 0.00 0.00 93 1016.4
20260503185512 61 281 0.0 3.0 0.00 0.00 0.00 93 1016.4
20260503185012 61 281 1.0 7.0 0.00 0.00 0.00 92 1016.5
20260503184514 61 281 2.0 10.0 0.00 0.00 0.00 92 1016.6
20260503184012 61 264 6.0 10.0 0.00 0.00 0.00 91 1016.4
20260503183511 62 265 3.0 8.0 0.00 0.00 0.00 91 1016.2
20260503183010 62 275 6.0 8.0 0.00 0.00 0.00 90 1016.1
20260503182514 62 249 0.0 4.0 0.00 0.00 0.00 90 1016.0
20260503182016 62 249 1.0 7.0 0.00 0.00 0.00 89 1016.0
20260503181510 62 240 4.0 9.0 0.00 0.00 0.00 89 1016.0
20260503181014 63 253 6.0 9.0 0.00 0.00 0.00 88 1016.0
20260503180511 63 295 2.0 8.0 0.00 0.00 0.00 88 1015.8
20260503180012 63 275 5.0 8.0 0.00 0.00 0.00 88 1015.8
20260503175510 63 313 3.0 7.0 0.00 0.00 0.00 88 1015.6
20260503175008 64 281 2.0 7.0 0.00 0.00 0.00 88 1015.7
20260503174509 64 278 2.0 4.0 0.00 0.00 0.00 88 1015.7
20260503174008 63 333 0.0 4.0 0.00 0.00 0.00 88 1015.9
20260503173507 63 53 2.0 3.0 0.00 0.00 0.00 88 1016.0
20260503173015 63 53 0.0 4.0 0.00 0.00 0.00 89 1016.1
20260503172505 63 5 1.0 7.0 0.00 0.00 0.00 89 1016.4
20260503172005 63 284 2.0 7.0 0.00 0.00 0.00 89 1016.5
20260503171505 62 241 4.0 7.0 0.00 0.00 0.00 89 1016.5
20260503171004 62 265 2.0 8.0 0.00 0.00 0.00 89 1016.6
20260503170504 62 270 4.0 8.0 0.00 0.00 0.00 88 1016.7
20260503160112 64 286 4.0 8.0 0.00 0.00 0.00 85 1016.6
20260503150557 65 271 7.0 12.0 0.00 0.00 0.00 83 1017.0
20260503150103 65 271 5.0 12.0 0.00 0.00 0.00 83 1017.0
20260503131051 68 277 10.0 14.0 0.00 0.00 0.00 77 1017.3
20260503130551 68 263 7.0 10.0 0.00 0.00 0.00 75 1017.1
20260503110532 63 269 5.0 9.0 0.00 0.00 0.00 86 1018.5
20260503090510 61 267 3.0 8.0 0.00 0.00 0.00 86 1018.1
20260503081605 60 340 3.0 8.0 0.00 0.00 0.00 82 1017.5
20260503081054 60 355 2.0 5.0 0.00 0.00 0.00 82 1017.4
20260503080556 60 63 3.0 9.0 0.00 0.00 0.00 82 1017.3
20260503072543 58 117 3.0 6.0 0.00 0.00 0.00 86 1018.0
20260503072046 57 125 3.0 6.0 0.00 0.00 0.00 85 1017.9
20260503071543 57 120 3.0 6.0 0.00 0.00 0.00 84 1017.8
20260503071038 57 120 3.0 7.0 0.00 0.00 0.00 83 1017.6
20260503070538 57 126 5.0 7.0 0.00 0.00 0.00 83 1017.4